www.pogodaiklimat.ru

Погода и климат >> Архив погоды >> Финляндия >> Муонио Лаукукеро


ПОГОДА в Муонио Лаукукеро

  • Прогноз погоды в Муонио Лаукукеро
  • Монитор погоды в Муонио Лаукукеро

АРХИВ ПОГОДЫ в Муонио Лаукукеро

Время (UTC), дата Ветер
(напр.,м/с)
 
Видим.   Явления Облачность Т
(С)
Тd
(С)
f
(%)
Тe
(С)
Тes
(С)
Комфортность P
(гПа)
Po
(гПа)
Тmin
(С)
Tmax
(С)
R
(мм)
R24
(мм)
S
(см)
19 18.08 Ю 11-15
{15}
н/о н/о +10.6 +10.6 100 +6 +6 1007.5 919.3
20 18.08 Ю 10 н/о н/о +10.6 +10.6 100 +6 +6 1007.4 919.2
21 18.08 Ю 11-15
{16}
н/о н/о +10.5 +10.5 100 +6 +6 1007.4 919.1
22 18.08 Ю 12 н/о н/о +10.4 +10.4 100 +5 +5 1007.3 919.1
23 18.08 Ю 12-16
{16}
н/о н/о +10.5 +10.5 100 +6 +6 1007.3 919.1
00 19.08 Ю 11-15
{15}
н/о н/о +10.7 +10.7 100 +6 +6 1007.3 919.2
01 19.08 Ю 11-14
{14}
н/о н/о +10.7 +10.7 100 +6 +6 1007.0 918.9
02 19.08 Ю 10 н/о н/о +10.6 +10.6 100 +6 +6 1006.8 918.7
03 19.08 Ю 11-14
{15}
н/о н/о +10.5 +10.5 100 +6 +6 1006.4 918.2
04 19.08 ЮВ 11 н/о н/о +10.3 +10.3 100 +6 +6 1006.2 918.0
05 19.08 ЮВ 11 н/о н/о +9.9 +9.9 100 +5 +5 1006.0 917.7
06 19.08 ЮВ 11-14
{14}
н/о н/о +9.8 +9.8 100 +5 +5 1005.2 916.9 +9.7 +10.7
07 19.08 ЮВ 15 н/о н/о +9.5 +9.5 100 +4 +4 1004.6 916.3
08 19.08 ЮВ 17-20
{21}
н/о н/о +8.6 +8.6 100 +2 +2 1004.1 915.6
09 19.08 ЮВ 18-21
{22}
н/о н/о +8.3 +8.3 100 +1 +1 1003.1 914.6
10 19.08 ЮВ 17-19
{22}
н/о н/о +8.5 +8.5 100 +2 +2 1002.8 914.4
11 19.08 ЮВ 15 н/о н/о +8.9 +8.9 100 +3 +3 1002.5 914.3
12 19.08 ЮВ 18-21
{22}
н/о н/о +9.3 +9.3 100 +3 +3 1001.2 913.2
13 19.08 ЮВ 21 н/о н/о +9.4 +9.4 100 +3 +3 1000.2 912.3
14 19.08 ЮВ 22 н/о н/о +9.5 +9.5 100 +3 +3 998.6 910.8
15 19.08 ЮВ 19-25
{25}
н/о н/о +9.6 +9.6 100 +3 +3 998.3 910.6
16 19.08 ЮВ 18 н/о н/о +10.0 +10.0 100 +4 +4 997.4 909.9
17 19.08 ЮВ 17 н/о н/о +10.4 +10.4 100 +5 +5 997.0 909.7
18 19.08 Ю 15-20
{22}
н/о н/о +10.1 +10.1 100 +5 +5 997.8 910.3 +8.2 +10.5
19 19.08 Ю 13 н/о н/о +9.7 +9.7 100 +4 +4 998.2 910.6
20 19.08 Ю 14-17
{19}
н/о н/о +9.8 +9.8 100 +4 +4 998.7 911.0
21 19.08 ЮЗ 15-18
{21}
н/о н/о +10.0 +10.0 100 +4 +4 998.9 911.3
22 19.08 ЮЗ 15 н/о н/о +9.8 +9.8 100 +4 +4 999.2 911.5
23 19.08 ЮЗ 14 н/о н/о +9.2 +9.2 100 +3 +3 999.8 911.9
00 20.08 ЮЗ 12-16
{17}
н/о н/о +8.7 +8.7 100 +3 +3 1000.8 912.6
01 20.08 ЮЗ 12-15
{17}
н/о н/о +8.5 +8.5 100 +3 +3 1001.5 913.2
02 20.08 ЮЗ 9 н/о н/о +8.4 +8.4 100 +3 +3 1002.3 913.9
03 20.08 ЮЗ 7-9
{11}
н/о н/о +8.8 +8.8 100 +4 +4 1002.9 914.5
04 20.08 ЮЗ 9 н/о н/о +8.9 +8.9 100 +4 +4 1003.2 914.9
05 20.08 ЮЗ 9-11
{12}
н/о н/о +8.8 +8.8 100 +4 +4 1003.8 915.4
06 20.08 ЮЗ 9-12
{12}
н/о н/о +8.8 +8.8 100 +4 +4 1004.3 915.9 +8.3 +10.1
07 20.08 ЮЗ 8 н/о н/о +8.9 +8.9 100 +4 +4 1004.9 916.4
08 20.08 ЮЗ 9 н/о н/о +9.0 +9.0 100 +4 +4 1005.5 917.0
09 20.08 ЮЗ 8-11
{11}
н/о н/о +9.9 +9.9 100 +6 +6 1005.9 917.6
10 20.08 ЮЗ 7-9
{10}
н/о н/о +10.8 +10.8 100 +7 +7 1005.8 917.8
11 20.08 ЮЗ 8 н/о н/о +13.0 +10.3 84 +10 +10 1005.7 918.4
12 20.08 ЮЗ 7-9
{12}
н/о н/о +12.9 +10.1 83 +10 +10 1006.3 918.8
13 20.08 ЮЗ 7-11
{11}
н/о н/о +14.3 +9.4 72 +12 +12 1006.0 919.0
14 20.08 З 5 н/о н/о +14.7 +8.4 66 +13 +13 1005.8 919.0
15 20.08 ЮЗ 6-8
{9}
н/о н/о +12.4 +9.1 80 +10 +10 1007.4 919.8
16 20.08 Ю 7 н/о н/о +9.4 +9.3 99 +5 +5 1008.7 920.1
17 20.08 н/о н/о +9.6 +7.6 87 1009.4 920.8
18 20.08 Ю 5 н/о н/о +9.3 +8.5 95 +6 +6 1010.0 921.2 +8.7 +15.1
19 20.08 Ю 6 н/о н/о +9.3 +9.3 100 +5 +5 1010.3 921.4
20 20.08 Ю 6 н/о н/о +8.8 +8.8 100 +5 +5 1010.9 921.9
21 20.08 Ю 6-8
{8}
н/о н/о +9.1 +8.4 95 +5 +5 1011.1 922.1
22 20.08 ЮЗ 5 н/о н/о +8.7 +8.7 100 +5 +5 1011.2 922.1
23 20.08 ЮЗ 5 н/о н/о +9.4 +9.4 100 +6 +6 1011.1 922.3
00 21.08 ЮЗ 5-6
{8}
н/о н/о +8.9 +8.9 100 +5 +5 1011.6 922.6
01 21.08 З 5 н/о н/о +9.6 +9.6 100 +6 +6 1011.6 922.8
02 21.08 ЮЗ 4-4
{5}
н/о н/о +10.1 +9.4 95 +7 +7 1011.7 923.0
03 21.08 Ю 2-3
{4}
н/о н/о +9.5 +9.5 100 +8 +8 1012.0 923.1
04 21.08 Ю 1-3
{3}
н/о н/о +10.6 +10.4 99 +10 +10 1011.7 923.2
05 21.08 Ю 5 н/о н/о +8.7 +8.7 100 +5 +5 1012.6 923.4
06 21.08 Ю 5-7
{8}
н/о н/о +8.7 +8.7 100 +5 +5 1013.0 923.7 +7.7 +10.6
07 21.08 Ю 4 н/о н/о +8.5 +8.5 100 +5 +5 1013.2 923.9
08 21.08 Ю 6-8
{8}
н/о н/о +9.2 +9.2 100 +5 +5 1013.2 924.1
09 21.08 Ю 5-8
{10}
н/о н/о +9.8 +9.8 100 +6 +6 1013.3 924.3
10 21.08 ЮЗ 4 н/о н/о +10.6 +10.6 100 +8 +8 1013.1 924.4
11 21.08 Ю 4 н/о н/о +11.6 +11.0 96 +9 +9 1012.9 924.5
12 21.08 ЮЗ 5-8
{8}
н/о н/о +12.2 +9.1 81 +10 +10 1012.9 924.7
13 21.08 Ю 6 н/о н/о +13.4 +9.1 75 +11 +11 1012.2 924.5
14 21.08 ЮЗ 7-8
{9}
н/о н/о +13.8 +8.5 70 +12 +12 1012.1 924.4
15 21.08 ЮЗ 8-11
{11}
н/о н/о +13.3 +7.9 70 +11 +11 1012.2 924.4
16 21.08 ЮЗ 8 н/о н/о +13.7 +8.0 68 +11 +11 1011.9 924.2
17 21.08 З 6 н/о н/о +10.8 +7.3 79 +8 +8 1013.1 924.5
18 21.08 ЮЗ 7-8
{8}
н/о н/о +12.1 +6.3 68 +9 +9 1012.9 924.7 +8.3 +14.7
19 21.08 З 4 н/о н/о +11.1 +6.4 73 +9 +9 1013.3 924.7
20 21.08 ЮЗ 5 н/о н/о +10.8 +6.0 72 +8 +8 1013.3 924.7
21 21.08 ЮЗ 7-9
{9}
н/о н/о +10.2 +6.0 75 +7 +7 1013.4 924.6
22 21.08 З 7 н/о н/о +9.5 +5.6 77 +6 +6 1013.7 924.6
23 21.08 З 4-6
{8}
н/о н/о +8.8 +5.6 80 +6 +6 1013.8 924.5
00 22.08 СЗ 6-6
{7}
н/о н/о +8.8 +5.7 81 +5 +5 1014.0 924.7
01 22.08 СЗ 5-6
{7}
н/о н/о +8.1 +5.1 81 +4 +4 1014.3 924.8
02 22.08 СЗ 5 н/о н/о +7.8 +5.2 84 +4 +4 1014.4 924.8
03 22.08 СЗ 5-7
{7}
н/о н/о +6.9 +5.9 93 +3 +3 1014.9 924.9
04 22.08 С 6-8
{9}
н/о н/о +6.4 +5.6 95 +2 +2 1015.2 925.0
05 22.08 С 7-11
{11}
н/о н/о +6.5 +5.5 93 +1 +1 1015.2 925.0
06 22.08 С 3-5
{10}
н/о н/о +7.1 +5.8 91 +4 +4 1015.3 925.3 +6.4 +12.2
07 22.08 СЗ 3 н/о н/о +7.9 +6.1 88 +5 +5 1015.2 925.5
08 22.08 СЗ 5 н/о н/о +9.2 +6.9 86 +6 +6 1015.0 925.7
09 22.08 СЗ 6-7
{8}
н/о н/о +9.6 +7.1 84 +6 +6 1015.0 925.9
10 22.08 С 7-8
{9}
н/о н/о +11.0 +7.8 81 +8 +8 1014.9 926.1
11 22.08 СЗ 5 н/о н/о +10.9 +6.9 76 +8 +8 1015.0 926.3
12 22.08 СЗ 8-10
{10}
н/о н/о +10.3 +7.0 80 +6 +6 1015.3 926.3
13 22.08 СЗ 9 н/о н/о +9.9 +5.8 76 +6 +6 1015.7 926.5
14 22.08 СЗ 7-9
{12}
н/о н/о +10.5 +4.8 68 +7 +7 1015.6 926.7
15 22.08 С 7-9
{9}
н/о н/о +10.3 +5.7 73 +7 +7 1016.0 927.0
16 22.08 С 6 н/о н/о +10.2 +5.5 73 +7 +7 1016.2 927.1
17 22.08 С 3 н/о н/о +9.9 +5.6 75 +8 +8 1016.2 927.0
18 22.08 С 3-4
{4}
н/о н/о +9.0 +5.6 79 +7 +7 1016.9 927.4 +7.1 +11.4
19 22.08 СВ 8-10
{10}
н/о н/о +8.8 +4.4 74 +4 +4 1017.0 927.4
20 22.08 СВ 9 н/о н/о +8.1 +4.9 80 +3 +3 1017.5 927.7
21 22.08 СВ 8-10
{11}
н/о н/о +6.9 +5.2 89 +2 +2 1017.8 927.6
22 22.08 В 6 н/о н/о +6.7 +5.0 89 +2 +2 1018.0 927.7
23 22.08 В 3 н/о н/о +6.2 +5.0 92 +3 +3 1018.1 927.7
00 23.08 В 5-5
{6}
н/о н/о +6.7 +5.3 91 +2 +2 1018.0 927.7
01 23.08 В 4 н/о н/о +6.6 +6.1 97 +3 +3 1017.9 927.6
02 23.08 ЮВ 4 н/о н/о +6.6 +5.6 93 +3 +3 1017.6 927.3
03 23.08 В 4-5
{5}
н/о н/о +6.8 +6.0 95 +3 +3 1017.4 927.1
04 23.08 В 5 н/о н/о +5.9 +5.7 99 +1 +1 1017.5 927.0
05 23.08 В 5 н/о н/о +6.0 +6.0 100 +1 +1 1017.4 927.0
06 23.08 ЮВ 8-9
{9}
н/о н/о +6.3 +6.3 100 +1 +1 1017.2 926.9 +5.7 +9.2
07 23.08 ЮВ 8 н/о н/о +6.8 +6.8 100 +1 +1 1016.9 926.8
08 23.08 В 4 н/о н/о +6.6 +6.6 100 +3 +3 1017.0 926.7
09 23.08 В 8-10
{10}
н/о н/о +8.0 +7.0 93 +3 +3 1016.0 926.3
10 23.08 В 7-9
{11}
н/о н/о +8.1 +7.1 93 +4 +4 1016.2 926.5
11 23.08 В 5 н/о н/о +8.4 +6.0 85 +5 +5 1015.9 926.3
12 23.08 В 7-8
{9}
н/о н/о +9.5 +5.8 78 +6 +6 1015.2 926.0
13 23.08 В 7 н/о н/о +8.7 +7.1 90 +4 +4 1015.4 926.0
14 23.08 В 8 н/о н/о +9.4 +6.2 80 +5 +5 1014.9 925.7
15 23.08 В 6-7
{10}
н/о н/о +9.1 +6.8 86 +5 +5 1014.9 925.6
16 23.08 В 7-9
{10}
н/о н/о +8.1 +5.8 85 +4 +4 1015.1 925.5
17 23.08 В 7-9
{9}
н/о н/о +8.1 +4.9 80 +4 +4 1014.8 925.2
18 23.08 В 5-5
{9}
н/о н/о +7.8 +5.4 85 +4 +4 1015.1 925.4 +6.3 +9.8
19 23.08 В 4 н/о н/о +7.5 +5.1 85 +4 +4 1015.2 925.4
20 23.08 В 5-5
{6}
н/о н/о +7.1 +4.7 85 +3 +3 1015.7 925.7
21 23.08 В 6-7
{7}
н/о н/о +6.8 +5.5 91 +2 +2 1015.8 925.7
22 23.08 В 6 н/о н/о +6.9 +5.3 90 +2 +2 1015.9 925.8
23 23.08 СВ 3 н/о н/о +7.5 +5.4 87 +5 +5 1016.3 926.4
00 24.08 СВ 2-3
{3}
н/о н/о +8.0 +5.1 82 +6 +6 1016.5 926.7
01 24.08 СВ 4-5
{5}
н/о н/о +7.6 +5.2 85 +4 +4 1016.9 927.0
02 24.08 СВ 5-6
{6}
н/о н/о +7.8 +5.1 83 +4 +4 1017.3 927.4
03 24.08 С 5-7
{7}
н/о н/о +6.8 +5.4 91 +3 +3 1018.1 927.8
04 24.08 СВ 9 н/о н/о +7.7 +5.2 84 +3 +3 1018.1 928.0
05 24.08 СВ 8 н/о н/о +6.7 +5.3 91 +1 +1 1018.9 928.5
06 24.08 С 8-9
{9}
н/о н/о +7.1 +5.0 86 +2 +2 1019.6 929.3 +6.3 +8.1
07 24.08 С 6 н/о н/о +6.4 +4.4 87 +2 +2 1020.5 929.9
08 24.08 С 7-10
{10}
н/о н/о +6.8 +6.2 96 +2 +2 1021.2 930.6
09 24.08 С 7-9
{9}
н/о н/о +7.7 +5.7 87 +3 +3 1021.8 931.5
10 24.08 С 7 н/о н/о +7.1 +6.0 93 +2 +2 1022.5 932.0
11 24.08 С 6-8
{9}
н/о н/о +6.8 +6.7 99 +2 +2 1023.1 932.4
12 24.08 С 6-9
{9}
н/о н/о +8.2 +5.3 82 +4 +4 1023.2 932.9
13 24.08 С 6 н/о н/о +8.3 +4.8 79 +4 +4 1023.5 933.2
14 24.08 С 4-7
{8}
н/о н/о +9.4 +4.5 71 +7 +7 1023.6 933.6
15 24.08 С 4-5
{9}
н/о н/о +8.2 +3.2 71 +5 +5 1024.4 934.0
16 24.08 СВ 5 н/о н/о +7.8 +4.3 79 +4 +4 1024.6 934.0
17 24.08 СВ 4-5
{5}
н/о н/о +7.4 +4.0 79 +4 +4 1024.8 934.1
18 24.08 СВ 5-7
{7}
н/о н/о +6.4 +4.4 87 +2 +2 1025.3 934.2 +6.1 +9.5
19 24.08 В 6 н/о н/о +5.9 +4.3 89 +1 +1 1025.5 934.3
20 24.08 В 6-7
{7}
н/о н/о +5.1 +4.9 99 -0 -0 1025.8 934.3
21 24.08 В 5-6
{8}
н/о н/о +4.7 +4.7 100 -0 -0 1025.9 934.3
22 24.08 В 5-6
{7}
н/о н/о +4.4 +4.4 100 -1 -1 1026.0 934.3
23 24.08 ЮВ 6 н/о н/о +5.0 +5.0 100 -0 -0 1025.5 934.0
00 25.08 ЮВ 6-8
{9}
н/о н/о +4.9 +4.9 100 -1 -1 1025.2 933.7
01 25.08 ЮВ 7 н/о н/о +4.9 +4.9 100 -1 -1 1024.8 933.3
02 25.08 ЮВ 7-10
{10}
н/о н/о +4.8 +4.8 100 -1 -1 1024.2 932.8
03 25.08 Ю 8-10
{10}
н/о н/о +5.2 +5.2 100 -1 -1 1023.5 932.2
04 25.08 Ю 8 н/о н/о +5.8 +5.8 100 -0 -0 1022.8 931.8
05 25.08 Ю 8 н/о н/о +6.1 +6.0 99 0 0 1022.1 931.3
06 25.08 Ю 8-11
{12}
н/о н/о +7.0 +6.8 99 +2 +2 1021.1 930.6 +4.2 +7.0
07 25.08 Ю 6 н/о н/о +7.1 +7.1 100 +2 +2 1020.5 930.1
08 25.08 Ю 7-10
{10}
н/о н/о +8.4 +6.9 90 +4 +4 1019.5 929.5
09 25.08 ЮВ 7-9
{9}
н/о н/о +7.4 +7.4 100 +2 +2 1019.0 928.8
10 25.08 Ю 8 н/о н/о +7.3 +7.3 100 +2 +2 1018.3 928.1
11 25.08 Ю 8 н/о н/о +7.9 +7.9 100 +3 +3 1017.0 927.1
12 25.08 Ю 8-10
{12}
н/о н/о +8.5 +8.5 100 +4 +4 1015.8 926.2
13 25.08 Ю 9-12
{12}
н/о н/о +8.9 +8.9 100 +4 +4 1014.8 925.4
14 25.08 ЮЗ 11 н/о н/о +9.4 +9.4 100 +4 +4 1013.7 924.5
15 25.08 ЮЗ 11-13
{14}
н/о н/о +9.6 +9.6 100 +5 +5 1012.4 923.5
16 25.08 ЮЗ 13 н/о н/о +9.5 +9.5 100 +4 +4 1011.6 922.7
17 25.08 ЮЗ 13 н/о н/о +9.4 +9.4 100 +4 +4 1010.6 921.7
18 25.08 ЮЗ 14-17
{17}
н/о н/о +9.4 +9.4 100 +4 +4 1009.6 920.8 +6.3 +9.7
19 25.08 З 13-16
{16}
н/о н/о +9.4 +9.4 100 +4 +4 1009.0 920.3

 

Местоположение метеостанции Муонио Лаукукеро (Финляндия): широта 68.06 долгота 24.03 высота над уровнем моря 760 м.

В архиве по умолчанию представлена погода в Муонио Лаукукеро за последнюю неделю. Архивные данные за месяц целиком и за предыдущие месяцы, начиная с января 2011 года, Вы можете получить, выбрав интересующий диапазон дат из раскрывающегося списка и нажав кнопку "Ввод!".


*Определитесь, кто Вы:
робот инопланетянин человек

Внимание! Время в таблицах - всемирное. Для получения местного времени необходимо прибавить поправку, которая равна 1 ч.

Смотрите также архив погоды в соседних городах и на ближайших метеорологических станциях:

Погода в Киттиля Ломполонвуома (Финляндия) (10 км)
Погода в Муонио Саммалтунтури (Финляндия) (11 км)
Погода в Киттила Маторова (Финляндия) (11 км)
Погода в Киттила Кенттарова (Финляндия) (12 км)
Погода в Муонио Аламуонио (Финляндия) (17 км)
Погода в Киттила Левитунтури (Финляндия) (46 км)
Погода в Киттиля (Финляндия) (53 км)
Погода в Киттиля (Финляндия) (58 км)
Погода в Паркаломполо (Швеция) (62 км)
Погода в Наккала (Финляндия) (63 км)

Пояснения к столбцам:

Ветер - указаны скорость ветра в м/с - средняя за 10 мин, порывы в срок и между сроками (в фигурных скобках) и направление, откуда дует ветер: С - северный, СВ - северо-восточный, В - восточный, ЮВ - юго-восточный, Ю - южный, ЮЗ - юго-западный, З - западный, СЗ - северо-западный.
Видимость - горизонтальная дальность видимости в метрах или километрах. При видимости от 1 до 10 км при отсутствии осадков обычно наблюдается дымка, при ухудшении видимости до 1 км и менее - туман. В сухую погоду видимость может ухудшаться дымом, пылью или мглою.
Явления - указаны атмосферные явления, наблюдавшиеся в срок или в последний час перед сроком; фигурными скобками обозначены явления, наблюдавшиеся между сроками (за 1-3 часа до срока); квадратными скобками обозначены град или гололедные отложения с указанием их диаметра в мм.
Облачность - указаны через наклонную черту общая и нижняя облачность в баллах и высота нижней границы облаков в метрах; квадратными скобками обозначены формы облаков: Ci - перистые, Cs - перисто-слоистые, Cc - перисто-кучевые, Ac - высококучевые, As - высокослоистые, Sc - слоисто-кучевые, Ns - слоисто-дождевые, Cu - кучевые, Cb - кучево-дождевые. Подробнее классификацию облаков см. в Атласе облаков (PDF).
T - Температура воздуха - температура, измеренная на высоте 2 м над землей.
Td - Температура точки росы - температура, при понижении до которой содержащийся в воздухе водяной пар достигнет насыщения.
f - Относительная влажность воздуха - влажноcть воздуха, измеренная на высоте 2 м над землей.
Te - Эффективная температура - температура, которую ощущает одетый по сезону человек в тени. Характеристика душности погоды. При расчете учитывается влияние влажности воздуха и скорости ветра на теплоощущения человека.
Tes - Эффективная температура на солнце - температура, которую ощущает человек, с поправкой на солнечный нагрев. Характеристика знойности погоды. Зависит от высоты солнца над горизонтом, облачности и скорости ветра. Ночью, в пасмурную погоду, а также при ветре 12 м/с и более поправка равна нулю.
P - Атмосферное давление - приведенное к уровню моря атмосферное давление.
Po - Атмосферное давление - измеренное на уровне метеостанции атмосферное давление.
Tmin - Минимальная температура - минимум температуры воздуха на высоте 2 м над землей.
Tmax - Максимальная температура - максимум температуры воздуха на высоте 2 м над землей.
R - Количество осадков - Количество выпавших осадков за период времени, мм. При наведении курсора мыши на число - период времени, за который выпало указанное количество осадков.
R24 - Количество осадков - Количество выпавших осадков за 24 часа, мм.
S - Снежный покров - Высота снежного покрова, см. При наведении курсора мыши на число - состояние снежного покрова и степень покрытия местности в баллах.